Theta_e
342 338 337 335 334 337 338 340 340 336 335 337 334 326 322 321 327 335 336 333 329 328 330 332 334 335 332 330 331 333 334 334 334 334 333 335 337 338 341 342 342 343 342 342 340 338 340 340 339 339 339 339 339 338 337 336 334 333 332 331 330 329 329 327 326 328 332 333 332 332 332 331 329 330 329 329 329 327 327 330 331 333 334 335 335
342 341 339 334 333 336 337 340 339 337 335 337 334 326 323 321 327 334 335 331 329 330 332 333 334 335 333 329 330 332 333 333 333 334 336 337 340 341 342 341 342 342 343 343 340 339 341 340 338 337 337 339 340 340 340 338 336 334 332 332 332 331 329 328 328 331 331 331 333 333 332 331 329 329 329 328 328 327 327 329 331 333 334 334 335
339 342 339 333 333 335 338 340 339 338 336 338 333 326 323 322 328 334 333 331 331 334 337 337 334 334 334 331 330 331 332 333 334 337 339 340 342 343 343 342 341 341 342 342 340 340 341 340 339 337 338 339 340 339 340 339 337 335 333 332 331 330 329 330 333 334 331 329 332 333 332 332 331 329 329 329 329 328 328 329 331 332 333 333 334
336 340 337 334 334 335 338 340 340 339 337 338 333 326 324 324 329 333 332 331 334 337 338 338 335 333 332 332 332 333 333 335 338 340 341 342 342 343 343 343 342 342 342 340 339 340 340 340 339 338 338 338 339 339 339 337 335 333 332 331 332 332 331 331 335 336 332 331 331 331 333 334 333 330 329 329 329 328 328 328 330 331 332 332 333
333 337 336 334 336 338 339 341 341 340 339 338 333 326 324 327 331 333 331 332 336 339 339 338 335 330 328 328 330 333 335 338 340 341 342 342 343 343 343 343 342 342 341 340 340 340 339 340 339 338 337 337 338 338 335 332 331 330 332 331 333 334 333 332 334 336 335 335 333 331 332 334 334 331 329 329 329 329 327 327 329 330 330 331 332
332 335 335 336 339 340 341 342 342 341 339 338 334 326 326 330 331 333 333 334 338 339 339 337 332 327 324 322 324 331 336 339 340 341 341 342 342 342 342 342 342 341 341 340 339 340 339 340 339 337 335 336 337 336 330 329 330 331 332 332 333 334 334 334 335 336 335 337 333 330 331 332 334 332 330 328 329 329 329 328 328 329 329 330 330
331 333 336 338 341 342 341 342 342 342 340 338 334 326 327 330 331 335 336 337 339 338 338 335 330 326 325 323 323 328 334 337 339 340 341 341 341 341 341 340 340 340 340 340 339 339 339 339 339 336 334 334 336 333 326 326 330 331 332 332 333 333 334 335 335 336 336 338 334 331 330 330 333 333 331 329 328 329 330 329 328 328 328 328 329
332 334 337 339 341 341 340 342 342 342 340 339 334 326 327 330 333 337 338 339 339 338 337 332 329 328 329 330 328 327 330 334 338 340 341 340 340 340 340 340 339 339 339 339 339 339 339 340 339 336 333 333 334 329 323 325 329 331 332 332 333 334 334 334 335 336 336 336 333 331 329 329 332 333 332 330 328 328 329 328 328 327 327 326 327
336 336 335 337 339 339 340 341 342 341 341 339 334 327 326 330 335 338 338 338 339 337 334 331 330 331 333 334 333 329 328 331 336 339 340 340 340 339 338 339 339 338 338 338 339 339 340 339 338 337 333 332 331 325 322 325 329 331 332 333 334 335 335 334 335 335 335 333 331 330 327 328 332 333 331 328 327 327 327 327 327 327 327 326 326
340 337 332 332 336 337 339 340 339 340 340 339 335 328 326 331 336 337 337 338 338 336 333 331 331 333 336 337 336 333 331 330 333 336 336 337 337 338 337 337 338 338 338 338 339 339 339 339 338 336 333 331 328 323 322 326 331 332 332 334 335 335 336 335 335 334 333 332 330 329 328 328 330 331 330 328 327 327 327 327 327 327 327 327 327
341 335 328 330 334 335 336 337 337 339 340 339 335 327 328 334 338 337 337 337 336 335 332 331 333 336 338 338 338 336 335 334 334 334 333 332 332 333 334 336 336 337 337 337 338 339 339 338 338 336 333 331 326 324 324 327 331 332 334 335 335 335 335 335 334 333 333 332 331 329 329 330 329 330 329 327 327 327 327 327 327 328 327 327 327
340 332 328 332 334 334 334 336 337 339 339 338 333 328 332 337 338 337 336 336 334 333 332 333 336 338 339 338 338 338 338 337 335 333 332 332 330 330 331 334 334 336 336 335 337 338 338 337 337 335 333 332 328 326 327 328 331 333 334 335 335 335 335 336 334 333 333 332 330 329 329 330 330 332 330 327 328 328 328 328 328 327 327 327 327
338 331 332 336 337 335 334 337 338 339 338 336 332 332 336 339 338 335 333 332 332 332 333 336 338 339 338 338 338 338 338 338 337 336 336 336 334 333 332 332 333 334 334 334 335 336 337 337 335 334 333 332 330 329 328 329 332 334 335 335 335 335 336 337 334 333 333 331 328 326 327 329 331 332 330 327 328 328 328 329 328 328 327 327 328
336 332 334 338 338 338 337 338 338 338 337 336 334 333 337 339 335 331 330 330 331 333 335 338 338 338 337 337 337 337 338 338 339 338 338 338 336 335 334 332 332 333 333 333 334 334 336 336 335 335 332 331 331 330 329 330 331 333 334 334 335 335 336 336 334 332 332 330 328 326 326 330 331 331 329 327 327 327 328 327 327 327 326 326 326
334 332 336 339 341 340 338 338 337 337 336 335 334 334 337 336 331 328 329 330 333 335 337 338 337 337 335 335 336 336 337 337 338 338 338 338 337 336 335 334 334 334 335 335 335 336 337 336 334 334 333 332 331 329 329 329 330 332 333 334 336 336 335 335 333 332 332 331 328 326 327 329 330 331 329 328 328 327 326 327 327 326 326 326 326
332 332 337 340 341 340 339 338 337 336 335 334 335 336 337 333 328 328 330 333 336 337 337 337 337 335 334 333 335 336 337 336 336 336 337 337 337 336 334 334 335 336 336 336 336 336 336 335 333 334 333 333 332 330 327 327 331 332 333 335 335 335 335 335 333 332 331 328 326 326 328 329 329 330 330 329 329 327 326 327 327 326 326 326 326
332 331 335 339 340 339 340 338 337 336 335 335 337 337 334 329 328 330 332 334 336 338 337 337 334 332 333 334 335 335 336 335 334 335 336 337 336 335 334 333 334 334 335 335 334 333 332 333 333 333 332 332 331 330 327 326 329 331 333 335 335 334 335 334 332 332 330 327 327 326 327 328 329 329 329 330 329 327 327 327 326 326 326 326 326
333 332 335 339 340 340 340 339 339 338 338 338 337 334 329 327 329 332 333 334 336 337 336 334 331 331 333 335 335 335 335 334 333 334 335 335 335 333 333 332 331 330 331 330 329 329 330 330 331 332 331 331 331 330 329 325 327 331 333 335 335 335 335 333 332 332 331 329 328 327 327 328 328 328 329 330 330 328 326 325 325 325 326 325 325
335 333 335 338 339 339 340 340 340 339 339 336 333 329 328 329 331 332 333 334 335 334 332 331 330 332 334 335 334 334 334 333 333 333 333 333 333 332 332 330 326 325 325 324 323 323 325 326 327 330 330 331 331 329 330 328 327 332 334 334 335 335 335 334 333 332 332 330 328 326 327 328 329 330 330 330 330 328 326 324 324 323 323 325 326
336 334 335 337 335 334 337 340 339 338 335 331 329 329 330 331 331 332 333 333 332 329 329 330 331 333 333 334 333 333 333 333 333 332 332 331 331 331 330 327 323 323 323 321 321 321 322 323 324 327 328 331 331 329 331 331 330 332 333 335 335 335 335 334 333 332 331 329 327 326 326 328 330 331 330 330 330 328 327 326 326 323 322 323 324
337 337 337 337 333 332 335 336 335 334 330 328 329 329 330 331 331 331 331 330 328 326 327 329 331 333 333 333 332 331 332 332 331 331 330 331 331 330 327 324 324 324 324 322 322 321 322 323 324 324 325 329 331 329 331 332 331 331 333 335 335 334 334 333 332 331 329 327 326 326 327 329 331 331 330 330 330 329 328 327 327 324 321 319 319
338 338 340 338 334 334 333 331 333 332 328 329 329 328 329 329 331 331 329 328 325 325 328 330 331 332 332 331 331 332 333 332 330 329 330 330 329 328 326 325 326 326 324 323 323 323 322 322 324 324 323 327 330 329 330 332 331 331 332 334 334 334 333 332 332 330 328 326 326 327 328 329 331 331 330 329 329 329 329 328 327 324 318 312 312
338 339 340 338 334 334 332 331 334 331 328 329 328 328 328 329 332 331 327 326 325 327 329 331 331 330 329 330 333 335 334 331 330 331 330 328 327 328 327 327 327 326 325 325 324 323 323 322 324 324 323 326 329 328 330 332 331 331 331 332 335 335 332 332 332 329 327 326 326 327 328 330 330 330 330 330 330 330 329 327 327 324 317 311 310
339 340 340 338 334 333 332 334 335 332 330 330 328 329 330 332 333 329 326 326 327 329 330 330 329 328 330 333 336 337 333 332 335 335 331 327 326 327 327 326 326 326 326 327 327 326 325 325 325 324 323 326 329 329 331 331 331 331 330 332 335 333 331 332 332 329 326 324 325 327 329 330 330 330 330 330 330 330 329 328 327 323 317 312 311
340 341 340 339 336 333 334 335 335 333 331 330 329 331 332 333 332 327 326 327 327 330 331 329 327 330 333 334 337 336 333 333 336 335 332 328 326 326 326 326 327 328 328 330 332 330 329 329 329 327 327 328 330 331 332 332 332 331 330 333 334 331 332 331 331 328 323 321 325 327 329 329 329 329 330 331 331 331 329 327 326 323 318 314 312
341 341 341 340 337 335 336 336 335 334 333 332 331 333 335 335 331 327 327 327 329 331 332 330 329 333 335 335 335 336 333 333 333 333 332 329 326 325 326 327 330 332 331 331 333 332 331 332 331 330 329 331 331 331 332 332 332 331 331 333 334 331 332 331 331 328 321 321 326 329 329 329 328 329 330 331 330 329 327 325 325 324 320 316 313
342 341 340 340 337 336 336 337 336 334 335 335 334 336 337 336 332 328 328 330 332 332 333 332 332 334 336 335 334 335 333 333 333 333 332 330 328 327 328 328 331 333 332 330 332 332 332 332 332 331 330 330 330 329 331 332 332 331 331 332 332 332 331 331 329 324 319 322 327 329 330 330 329 329 330 331 330 328 327 326 326 325 323 320 314
341 340 340 339 338 337 338 339 336 335 338 337 335 337 337 335 334 331 331 333 333 333 333 332 333 334 335 335 334 334 334 333 333 333 332 332 331 330 330 330 331 333 332 331 331 331 330 331 331 331 331 330 329 329 330 331 331 331 330 330 331 331 331 330 325 319 317 323 328 329 330 331 330 329 330 331 330 329 328 326 326 325 325 323 319
341 340 339 339 339 339 339 339 337 336 338 337 336 338 337 337 335 333 335 335 335 335 333 333 333 332 333 334 334 333 334 333 333 333 333 333 332 332 331 331 332 332 332 331 330 330 330 329 329 329 329 328 328 328 330 330 331 330 330 331 331 331 332 330 326 320 318 323 329 330 330 331 331 330 330 330 329 329 328 327 326 326 326 326 324
341 340 339 338 339 340 339 339 338 338 338 337 337 338 337 337 336 335 337 336 336 335 334 333 333 333 333 334 333 333 334 334 334 333 333 333 332 333 332 332 333 334 333 331 330 330 329 329 329 328 327 328 329 328 329 330 331 330 330 330 330 331 331 331 329 323 319 323 328 329 329 330 330 330 330 330 330 329 329 327 327 327 327 327 327
341 340 339 338 339 340 340 339 338 339 339 338 339 338 337 337 336 337 337 336 335 334 333 334 334 334 333 333 334 333 334 334 333 332 332 333 332 332 333 334 335 335 334 331 330 329 329 330 329 328 327 329 330 329 328 329 330 330 329 329 329 331 331 331 331 325 321 324 326 327 328 329 328 328 329 330 330 329 329 328 327 327 327 327 327
341 340 338 338 339 339 339 339 339 339 338 339 339 338 336 336 336 337 338 336 335 334 334 335 335 335 334 334 334 334 334 333 333 333 332 333 332 331 333 334 335 335 334 332 331 328 328 328 327 328 329 329 329 329 328 329 329 330 329 328 328 330 331 332 331 326 322 324 324 325 326 326 325 325 327 328 329 330 329 329 329 328 328 327 326
340 339 337 337 338 338 338 339 339 339 338 338 338 338 337 336 336 337 338 337 336 335 335 336 335 335 334 334 335 334 334 333 334 334 333 332 332 332 332 333 335 335 334 333 332 329 327 327 327 329 330 330 330 329 328 328 329 329 330 329 329 330 330 332 331 326 325 325 324 324 325 324 325 326 327 326 327 329 330 330 330 330 329 328 327
337 336 336 337 338 339 339 339 339 339 339 338 338 338 337 337 337 337 338 337 336 337 337 335 335 334 335 334 334 334 334 333 334 333 332 332 332 332 332 333 335 335 334 333 331 329 327 326 329 329 329 329 329 328 328 328 329 330 330 329 329 331 331 331 330 328 328 328 326 326 324 324 325 326 327 328 328 329 329 330 330 330 330 330 329
333 334 336 337 338 339 339 338 338 337 338 338 339 338 338 337 338 338 338 338 338 337 336 334 334 334 334 333 333 334 334 334 334 333 332 332 333 332 332 333 334 334 333 331 330 329 327 327 330 330 328 328 327 327 328 329 329 330 330 330 330 331 331 330 329 329 330 330 329 329 327 326 327 326 326 327 328 328 329 330 330 330 330 330 330
333 335 336 336 337 338 338 337 337 337 338 338 339 339 339 338 338 338 338 338 337 335 334 334 334 335 334 334 334 333 334 335 334 334 333 332 333 332 331 333 333 334 333 332 330 329 327 328 330 330 329 327 327 327 328 329 330 330 330 330 331 330 330 328 328 330 330 330 331 330 330 330 330 329 327 326 326 327 328 329 330 329 330 330 331
334 335 336 335 336 336 336 335 335 336 338 338 339 339 338 337 337 336 335 335 334 334 333 333 334 335 335 334 334 334 333 335 335 334 334 333 333 332 332 333 333 334 333 333 332 329 327 329 330 331 330 328 327 327 328 330 330 330 329 329 330 330 330 328 328 328 328 330 331 331 330 331 331 332 330 329 327 326 326 327 328 328 329 329 330
334 336 335 334 335 335 334 334 335 336 338 339 339 338 338 336 334 333 333 332 332 333 332 332 333 334 334 334 333 334 334 334 335 334 334 333 333 333 333 333 333 333 333 334 333 330 327 328 329 330 331 329 328 327 328 330 329 330 330 330 330 330 331 330 328 328 327 329 330 330 330 330 331 331 331 331 330 329 328 327 327 327 327 328 329
335 335 335 334 334 334 335 334 335 337 339 339 339 337 335 333 332 332 331 332 332 332 332 331 332 332 333 333 333 333 334 333 334 334 334 333 332 332 332 332 333 333 333 334 334 330 327 328 328 329 330 329 329 328 328 329 329 330 330 331 330 330 331 330 328 328 327 327 329 329 329 330 331 331 331 331 331 331 331 329 328 329 328 328 328
334 334 334 333 334 335 336 334 335 337 337 337 336 335 333 332 332 332 331 331 332 331 332 332 332 332 333 333 334 333 333 334 334 334 334 333 333 332 332 332 332 332 333 334 334 330 328 329 328 329 330 329 328 328 328 329 329 330 330 330 331 331 330 328 327 328 327 326 327 328 329 329 329 329 330 330 330 331 331 330 330 330 329 329 329
334 334 333 333 334 335 335 334 335 335 334 333 332 332 332 332 333 332 332 332 332 332 332 332 333 333 333 334 334 333 333 334 334 334 334 333 333 332 331 332 332 332 333 334 333 331 329 329 330 330 329 328 328 328 328 329 329 329 330 329 330 330 329 328 327 327 327 327 326 327 327 328 328 328 328 328 329 330 330 330 330 330 329 328 328
334 334 333 332 333 333 334 334 334 333 333 332 332 333 333 333 333 333 333 333 332 331 331 330 331 333 333 334 333 333 333 334 334 334 333 333 333 333 332 332 332 332 332 333 332 330 329 329 329 330 329 328 328 329 329 329 329 329 329 330 330 330 329 327 327 326 327 327 326 326 326 326 326 326 326 326 327 328 328 329 329 330 329 328 328
336 335 332 332 333 334 334 335 335 333 332 331 331 332 332 332 332 331 331 330 329 328 327 326 328 331 333 333 333 333 333 334 334 334 333 333 333 332 332 332 332 332 332 332 332 330 329 329 328 329 329 328 329 329 329 329 330 330 330 331 331 330 329 328 327 327 326 325 325 326 325 325 325 325 326 326 326 326 327 328 329 329 329 328 327
334 333 332 332 333 333 334 334 333 330 328 329 329 329 330 331 330 329 328 328 327 327 327 328 329 330 331 332 332 332 332 333 333 334 333 333 332 332 332 332 331 332 331 332 332 330 329 329 328 328 328 329 328 328 329 329 330 329 329 331 330 330 332 329 326 326 326 324 324 325 326 325 325 325 326 326 326 326 326 327 328 328 328 327 326
331 332 332 332 333 333 333 331 329 328 328 328 328 329 330 329 327 326 327 326 327 328 329 331 331 329 330 331 330 330 331 332 333 332 332 332 332 332 332 332 331 330 331 331 330 329 330 329 328 327 328 329 328 328 329 329 330 329 329 330 329 332 333 330 327 325 324 323 322 322 325 325 325 325 325 325 325 325 326 327 328 327 326 324 322
331 332 332 332 333 333 331 329 327 328 327 327 328 329 329 327 325 325 326 326 328 328 329 330 329 329 330 330 329 329 330 330 330 331 331 331 331 331 331 332 330 329 330 330 329 330 330 329 328 328 327 328 327 328 328 328 329 329 329 329 330 331 330 328 330 326 321 320 320 321 323 323 324 324 324 324 324 325 325 326 326 324 322 321 319
331 332 332 332 332 332 329 326 327 327 326 326 328 328 326 324 324 325 327 328 327 325 325 327 329 328 327 328 328 328 328 327 328 328 328 328 329 328 329 330 330 329 329 329 329 329 329 329 330 329 329 328 326 327 328 327 328 328 329 329 329 329 326 327 329 326 322 321 318 319 321 321 322 322 323 323 323 324 324 324 323 322 321 320 314
332 331 332 333 333 332 329 327 327 327 326 326 327 328 325 323 324 326 328 328 326 325 325 326 326 324 323 326 326 325 326 327 327 327 327 326 326 327 327 327 328 328 328 327 328 328 329 329 330 329 328 329 327 326 328 328 328 328 329 330 329 328 326 326 325 323 323 322 319 318 319 319 320 319 320 322 323 323 324 323 323 321 319 315 308
332 332 332 333 333 332 330 329 329 328 327 327 328 328 326 325 326 328 328 327 325 325 325 324 323 323 322 325 326 325 325 326 325 325 324 324 325 326 327 326 326 326 327 327 327 328 328 329 329 328 327 327 327 327 328 328 328 328 328 329 328 328 327 325 323 321 321 322 320 319 317 317 318 317 317 320 323 323 323 322 321 319 315 309 304
332 332 332 332 332 332 333 332 332 331 330 330 331 331 329 329 329 328 327 326 325 324 324 324 323 323 323 323 324 324 325 325 324 325 325 324 324 325 326 325 326 326 326 328 328 327 328 328 328 328 327 326 326 328 328 328 328 328 328 329 328 327 326 324 323 322 320 319 319 318 316 316 317 316 315 317 321 321 320 318 318 316 314 310 305
332 332 332 331 330 332 333 333 332 332 332 331 332 331 330 330 328 327 326 324 324 324 323 323 322 321 322 322 322 323 325 325 324 325 325 325 325 325 324 324 325 326 326 328 329 329 328 329 328 328 327 327 327 327 327 327 328 328 328 328 328 326 325 324 323 324 320 317 318 318 316 316 316 316 315 315 317 317 316 315 314 314 313 311 306
Wind_Speed
22 25 26 25 25 23 23 23 24 25 24 23 21 21 21 21 22 22 22 21 21 20 20 20 20 20 20 20 22 22 21 21 20 19 19 19 19 20 19 18 18 18 19 18 17 19 19 17 16 16 16 16 16 16 18 17 16 17 17 17 17 17 18 19 21 23 24 23 22 21 22 23 21 21 21 21 20 18 17 19 20 20 19 19 19
23 24 25 26 26 24 24 23 24 25 24 23 21 21 21 21 22 22 21 21 20 20 20 20 19 19 20 20 21 21 20 19 18 18 17 18 19 19 18 17 16 16 17 16 16 17 16 15 15 15 15 15 15 14 15 15 14 15 15 15 15 16 17 19 22 24 24 23 23 22 23 25 23 22 21 21 20 19 18 19 20 20 20 19 19
27 25 25 26 26 25 24 24 25 25 24 23 21 21 21 21 21 21 21 21 20 19 20 20 19 18 19 20 20 20 19 18 18 17 17 17 18 18 17 16 15 16 16 15 15 16 15 15 14 15 15 14 14 14 13 12 12 13 14 14 14 15 16 19 22 22 24 25 23 22 23 24 23 22 21 21 20 20 18 18 19 20 21 21 20
29 26 25 25 25 25 24 25 24 24 24 23 22 21 21 22 21 21 20 20 19 19 19 19 18 18 18 18 18 18 18 18 17 17 16 16 17 17 16 16 16 15 14 14 14 14 13 13 14 14 15 14 13 12 11 11 13 14 14 14 13 13 14 16 19 20 24 25 24 23 23 23 22 21 20 21 20 19 18 17 18 20 20 21 20
30 26 26 25 24 25 24 25 24 24 24 23 22 21 22 22 21 21 20 19 18 18 18 18 18 18 17 17 16 16 17 17 17 16 16 16 16 16 16 15 15 15 14 14 13 13 13 12 12 12 13 13 12 11 11 12 14 15 14 13 12 12 12 14 16 18 18 20 22 22 23 22 21 21 19 20 20 19 18 17 17 18 19 19 19
31 27 26 25 25 25 24 24 24 24 23 23 22 21 22 22 22 20 19 18 17 18 17 17 17 17 17 17 16 16 16 17 16 15 15 15 16 15 15 15 14 14 13 13 13 12 12 12 11 11 12 12 11 9 12 14 15 14 13 12 11 11 11 12 13 13 9 13 18 19 22 21 20 20 18 18 18 19 18 16 16 17 17 18 18
31 28 25 25 25 24 24 23 23 23 23 23 22 22 23 22 21 19 18 18 17 17 16 17 17 17 17 17 16 16 16 16 16 16 16 15 15 15 14 14 13 13 13 13 12 12 12 12 11 10 11 12 9 8 13 15 14 12 12 12 11 10 10 10 9 7 4 9 15 18 20 20 19 18 18 18 17 18 19 18 17 16 16 17 18
29 27 25 25 24 24 23 23 23 23 23 23 22 22 23 22 20 18 18 17 17 16 16 17 17 17 17 16 15 15 15 15 15 16 16 15 15 16 15 14 13 13 12 12 11 11 11 11 10 9 10 10 9 9 13 14 13 12 12 12 11 10 10 10 9 9 8 12 17 17 18 19 18 17 17 17 17 17 18 18 18 17 17 17 17
28 25 25 25 24 23 22 23 22 22 23 23 23 23 23 22 20 18 18 17 16 16 16 17 17 16 15 15 15 14 15 14 14 15 14 14 15 15 16 15 13 14 13 11 11 11 11 10 9 8 9 9 8 10 13 14 14 12 11 10 10 10 10 12 13 16 19 20 20 17 17 18 17 16 16 16 18 18 18 18 18 18 18 17 17
26 24 25 25 23 23 22 22 22 22 23 23 24 24 23 22 20 19 18 17 15 15 16 16 16 15 15 15 14 14 14 14 14 14 13 12 12 13 13 13 13 13 13 12 10 10 10 9 8 8 9 9 9 11 14 15 14 12 10 10 10 11 12 15 17 21 24 21 18 17 17 18 17 16 16 17 19 18 18 18 18 18 18 18 18
24 25 25 25 24 23 22 22 21 22 23 24 24 24 24 22 20 19 18 17 16 16 15 15 14 14 14 14 14 14 13 14 14 13 13 12 11 11 11 11 11 11 12 12 11 9 8 8 7 6 8 10 10 12 14 14 13 10 9 10 11 12 15 18 19 22 22 19 17 17 18 18 17 15 15 18 18 17 17 18 18 18 18 18 18
24 25 26 25 24 23 23 22 22 23 23 24 25 25 24 22 20 19 18 17 16 16 15 14 13 13 13 14 13 14 13 14 14 14 14 14 13 12 12 10 10 10 10 11 10 9 7 6 5 5 8 10 11 12 13 13 11 10 10 10 10 12 15 17 18 20 19 16 16 16 17 18 17 15 16 17 17 16 16 17 17 18 18 18 18
25 26 26 26 24 23 23 23 23 24 24 25 25 25 23 22 20 19 18 17 17 16 15 13 13 13 13 13 13 14 14 14 14 14 14 13 13 13 13 12 10 10 10 9 9 8 6 6 5 5 7 8 9 10 12 11 10 10 9 10 11 13 14 16 17 19 17 15 16 16 16 17 16 15 15 17 16 15 16 16 16 17 18 18 17
27 27 27 26 24 23 23 23 23 24 25 25 25 24 23 22 20 19 19 18 17 16 15 14 13 13 13 13 13 14 13 13 13 14 13 12 12 12 12 13 12 11 10 9 7 7 7 6 5 5 6 6 6 7 9 9 8 9 9 9 11 12 14 17 18 19 17 16 17 16 15 17 16 14 14 15 15 14 15 16 16 16 17 17 15
28 28 27 26 24 23 24 23 23 24 24 24 24 24 23 21 19 19 19 18 17 16 14 14 14 13 13 14 13 13 13 14 14 14 14 12 12 11 11 11 11 10 10 9 8 8 8 6 5 5 5 4 4 5 7 7 8 8 7 8 10 11 14 16 19 19 18 17 17 16 16 17 15 14 13 14 14 14 15 15 16 16 16 15 15
28 28 28 26 25 24 24 23 23 24 24 24 24 24 22 20 20 19 18 17 16 15 14 15 14 14 13 14 13 13 14 15 15 14 14 13 12 11 10 9 9 9 9 8 8 8 7 5 5 4 4 3 3 3 5 6 8 8 7 8 10 11 16 17 19 17 16 17 17 16 16 15 14 15 15 14 12 13 15 15 15 15 15 15 16
28 28 28 26 26 26 24 24 24 24 24 24 24 23 21 20 20 19 18 16 16 15 15 15 14 13 13 13 14 14 15 15 15 15 14 13 12 10 9 8 7 7 7 7 7 6 4 4 4 4 3 3 3 4 5 7 8 7 7 9 10 12 16 18 19 17 16 16 16 14 14 14 14 15 16 14 11 13 15 14 14 14 14 14 15
27 27 27 26 26 25 24 24 25 25 24 24 23 22 22 21 20 18 17 16 16 15 15 14 13 12 12 13 14 14 14 14 14 14 13 12 11 9 8 7 7 6 6 5 5 4 3 2 2 3 3 3 4 6 6 8 8 7 8 9 10 12 15 17 18 16 15 14 14 13 13 13 13 15 16 13 12 12 13 13 13 13 14 14 14
26 27 27 26 26 25 25 25 25 25 24 24 23 22 21 21 20 18 17 16 15 15 14 13 12 12 12 13 14 14 14 13 14 14 13 11 10 8 7 6 6 6 5 5 5 4 3 2 1 1 2 3 4 6 5 7 8 7 8 9 10 12 11 14 16 15 14 13 14 13 13 13 14 16 15 13 12 11 11 12 13 12 13 13 13
26 27 26 25 25 25 25 25 25 25 25 25 24 22 20 20 19 18 17 16 15 15 14 14 13 13 12 12 13 13 14 13 13 13 12 10 9 7 7 6 6 6 6 6 6 6 5 4 2 1 1 2 3 4 5 6 7 8 9 10 11 12 9 14 15 13 13 13 13 13 13 13 15 16 15 13 11 10 10 12 12 12 12 12 12
25 26 24 24 25 25 25 25 26 26 26 25 23 22 20 19 19 18 17 16 15 15 15 15 14 13 13 13 13 13 14 14 13 12 10 9 8 7 7 7 6 6 5 6 6 6 6 5 3 2 1 3 4 4 5 6 7 9 9 9 13 14 12 15 14 13 13 13 13 13 13 14 15 15 14 13 11 10 10 11 10 11 11 10 10
26 25 24 25 26 26 26 27 26 26 26 24 23 22 20 19 18 18 17 17 16 15 16 16 15 15 15 14 13 13 14 14 13 10 9 8 8 7 7 7 6 5 5 5 6 6 6 5 4 3 2 4 5 5 6 6 7 8 9 10 13 13 12 13 13 12 12 13 13 13 13 14 15 14 13 13 11 11 10 8 8 9 10 9 10
26 25 26 26 26 27 27 27 26 25 25 24 23 22 20 19 19 18 18 18 17 17 18 17 17 16 16 15 14 13 13 13 11 9 8 8 7 7 7 6 5 4 4 4 5 6 6 6 5 4 4 7 8 7 6 7 6 5 7 6 8 9 11 11 11 11 11 12 12 12 13 14 14 13 13 13 12 11 9 7 7 8 9 10 10
25 26 30 28 28 29 28 27 26 25 25 24 23 22 20 20 19 19 19 18 18 18 19 18 18 17 16 16 15 13 13 12 11 9 8 7 7 7 7 6 5 4 3 3 4 5 6 6 6 6 6 8 8 5 4 3 2 3 4 4 6 8 10 9 10 10 10 11 11 12 14 15 14 13 13 12 11 11 9 7 6 7 9 11 11
25 28 31 30 29 29 29 27 26 26 25 25 24 22 20 20 19 19 19 18 18 18 18 18 17 16 16 15 14 14 13 12 11 9 8 7 7 7 7 6 5 4 3 2 3 4 5 5 5 6 5 5 3 2 3 5 5 5 5 6 8 9 9 8 9 9 9 11 11 12 13 13 14 13 11 11 11 10 8 6 6 8 10 11 11
26 30 29 30 31 29 29 27 26 26 25 25 24 22 20 19 19 19 20 18 17 18 17 17 17 17 16 14 13 12 12 11 10 9 8 7 6 6 6 5 5 4 2 1 2 2 3 3 2 3 3 1 1 5 5 5 6 5 6 7 7 8 9 9 8 8 9 10 12 12 12 12 13 13 10 10 11 9 8 8 8 9 10 11 11
26 29 28 29 31 29 28 27 27 27 24 24 23 22 21 20 20 20 20 18 16 16 16 17 17 16 15 13 12 11 11 10 10 10 8 7 5 5 5 4 5 4 2 1 1 2 2 2 1 1 1 2 3 6 2 5 6 4 4 6 8 8 9 9 8 8 9 11 13 13 13 12 13 13 11 10 10 9 9 9 8 9 10 11 11
26 27 27 28 30 28 27 27 28 28 24 23 23 22 22 21 21 22 20 17 15 14 15 16 15 14 13 12 12 11 11 11 10 10 8 7 5 4 5 5 4 5 3 2 2 2 2 3 3 2 3 3 4 5 3 7 6 4 4 5 7 9 9 9 9 8 9 11 13 14 13 12 12 13 11 11 10 9 9 9 8 7 8 10 11
27 29 28 29 29 27 26 27 28 27 24 24 23 21 22 21 22 23 21 17 16 15 15 14 12 13 13 13 13 12 11 10 10 9 6 6 6 5 4 4 3 4 4 2 2 3 2 3 4 2 1 2 6 5 6 9 7 6 7 7 8 10 10 9 9 8 9 11 12 13 13 12 11 11 10 10 9 9 9 9 8 6 6 7 9
27 30 29 30 29 26 25 26 28 27 24 25 23 22 23 23 23 24 21 18 16 16 16 13 12 13 13 12 11 11 11 9 8 7 5 5 6 5 4 4 2 2 2 2 1 1 1 3 4 2 3 4 6 5 7 12 10 7 9 9 8 11 11 10 10 10 10 11 11 10 10 11 11 11 10 9 9 9 8 9 9 7 6 6 7
27 29 28 30 29 26 26 25 28 28 25 24 23 24 24 23 22 21 20 19 17 16 15 13 12 12 11 11 11 11 10 8 7 6 5 6 6 6 5 6 3 1 1 2 1 0 1 3 4 4 5 5 5 5 6 11 12 8 8 8 8 10 12 11 10 11 11 11 10 9 9 9 9 10 10 10 9 8 8 8 9 8 7 6 6
28 28 25 27 27 25 25 24 27 27 25 25 23 23 23 22 21 19 18 17 16 16 14 13 13 11 11 11 11 10 9 7 7 6 6 7 7 7 6 6 5 1 1 1 1 2 3 5 5 5 4 4 7 7 5 9 14 11 9 10 10 11 12 12 11 13 13 12 11 10 9 8 8 8 9 10 10 9 8 8 8 8 8 7 6
25 23 21 24 25 24 24 24 26 25 25 25 22 21 22 22 21 18 17 16 16 15 13 13 11 10 11 10 9 8 8 7 8 8 8 8 8 8 6 6 5 2 1 2 2 3 5 6 6 5 5 6 8 9 7 9 14 13 12 11 12 12 12 14 15 15 14 13 13 12 10 9 8 7 7 8 10 10 10 9 9 8 8 7 6
23 24 24 24 26 25 25 26 25 25 25 24 21 22 23 23 20 18 17 17 16 15 12 11 9 10 10 8 8 8 8 9 9 9 9 8 8 7 6 6 6 3 2 3 3 5 6 8 7 6 6 7 7 8 9 11 12 14 16 15 13 12 12 13 15 14 11 11 13 13 13 12 10 8 8 8 8 9 9 9 9 9 8 6 5
28 28 26 27 28 26 26 27 26 26 26 23 21 21 22 21 20 18 18 17 17 15 12 10 10 10 10 9 9 9 9 10 10 9 9 9 8 7 6 8 7 5 3 3 5 6 7 9 9 7 6 7 8 9 11 13 12 13 17 16 13 12 10 10 12 12 9 10 11 11 12 12 12 10 8 8 8 8 7 7 7 8 8 8 6
29 27 27 28 28 28 30 27 26 26 24 22 20 19 20 22 20 18 17 17 16 14 12 11 10 10 9 9 9 10 11 11 10 8 8 8 8 6 6 7 7 7 4 3 5 6 8 10 9 6 6 6 8 10 12 13 12 13 13 13 12 11 10 10 11 10 9 10 10 9 9 9 9 8 8 8 8 8 8 7 7 7 7 7 6
28 28 29 28 26 27 28 24 23 25 24 23 20 19 22 22 20 16 15 15 14 13 11 10 8 7 8 8 8 9 10 11 10 9 8 8 7 7 7 7 8 8 7 5 5 6 8 10 9 6 5 6 8 11 12 11 12 12 13 13 12 11 12 14 14 10 8 9 9 9 8 9 9 8 7 8 8 8 8 7 7 6 6 6 6
28 28 28 27 24 22 22 23 23 22 23 24 22 22 22 19 17 15 14 14 13 12 10 9 7 6 6 6 7 8 8 8 9 10 10 9 9 9 8 7 9 9 8 7 6 7 9 9 9 8 5 6 8 10 11 10 10 11 12 13 12 11 12 13 13 8 6 7 8 9 10 11 12 9 8 8 8 8 7 7 7 6 6 5 5
29 28 29 27 25 22 22 25 24 19 20 23 22 21 18 17 17 15 14 14 13 11 9 9 8 6 6 6 7 6 6 6 8 9 9 9 10 10 8 8 10 11 10 9 7 8 10 9 10 9 7 7 7 9 10 10 10 9 10 11 12 11 8 10 11 6 5 7 6 8 9 9 9 8 8 7 7 7 7 7 6 6 6 5 4
29 29 30 31 31 29 28 27 24 19 19 19 19 20 19 18 18 17 16 16 15 12 10 9 8 7 7 7 6 4 3 5 7 8 8 8 9 9 9 9 11 12 11 11 9 9 11 11 11 11 10 10 8 10 10 11 11 9 9 9 10 9 7 9 10 6 6 8 8 8 7 7 7 7 7 6 5 6 7 6 5 5 5 3 3
28 28 29 32 35 36 35 31 26 22 21 20 20 21 21 20 20 19 19 17 14 13 12 12 11 10 8 7 6 4 4 5 7 8 8 9 9 9 9 9 11 12 12 11 9 10 12 11 12 11 11 12 11 10 11 13 12 10 8 9 8 8 8 10 9 7 8 8 9 10 9 9 9 7 6 6 6 5 6 6 5 4 4 4 4
28 30 31 33 36 38 37 34 28 24 23 23 22 22 22 22 21 19 17 16 16 16 16 14 13 11 8 7 6 5 7 8 8 9 9 9 9 9 9 9 11 11 12 11 9 10 13 13 13 14 13 12 11 12 14 12 10 10 10 8 7 6 8 10 10 10 9 8 8 11 12 11 10 9 8 7 7 7 7 7 6 5 5 6 6
29 29 31 35 38 38 37 34 29 26 25 24 24 23 21 19 18 17 17 18 18 15 12 11 11 11 9 7 7 6 8 9 9 9 9 9 8 9 9 9 9 10 12 12 9 11 13 13 14 15 15 14 12 13 14 10 9 12 10 5 2 3 5 6 9 10 9 8 8 9 11 12 11 10 10 9 8 8 7 7 7 7 8 7 6
27 27 29 33 37 37 36 36 32 30 28 26 24 22 19 17 18 20 21 20 17 13 12 14 13 13 11 9 8 7 7 7 8 8 8 8 7 8 10 10 8 9 12 11 10 11 12 13 14 15 16 16 13 12 12 10 12 12 7 2 2 3 2 2 6 10 8 8 6 7 10 13 12 10 9 8 7 6 5 6 8 10 10 7 5
26 27 30 34 37 37 36 36 34 33 32 28 24 22 22 23 24 25 24 22 19 17 18 18 16 13 13 12 11 9 9 8 8 7 7 7 8 8 10 10 8 9 11 10 10 11 11 12 13 14 15 16 15 14 13 11 12 11 5 4 3 2 2 4 5 8 7 7 7 9 13 14 12 11 11 9 7 6 6 9 13 12 10 6 6
28 28 30 33 36 37 36 35 34 34 32 30 28 27 28 28 27 26 25 23 20 18 20 21 18 16 15 14 12 11 11 11 10 10 9 8 8 8 9 9 7 7 9 10 10 11 11 11 11 12 13 14 15 16 15 13 13 11 6 6 4 3 6 7 5 5 8 12 15 15 16 14 13 13 13 12 10 10 13 15 15 12 9 7 8
31 29 28 31 33 36 36 35 35 33 32 31 30 29 29 27 26 26 26 25 21 18 19 20 19 18 16 15 14 12 11 11 10 12 12 11 10 8 7 5 5 6 7 9 11 11 11 11 9 10 11 12 14 15 16 14 14 11 6 5 5 7 11 8 4 4 5 10 15 19 19 17 16 16 14 14 13 15 17 17 15 12 9 8 9
32 30 31 33 34 35 36 35 34 34 33 31 29 28 27 27 27 26 26 25 23 22 22 21 19 15 14 15 15 14 12 10 10 11 11 10 9 8 6 4 2 4 6 8 10 11 11 11 10 9 9 11 11 13 15 15 14 11 8 7 6 9 14 9 8 10 5 3 7 14 17 18 17 17 14 14 16 19 18 15 13 10 8 8 8
32 32 35 37 37 36 35 34 35 35 33 31 30 28 27 28 28 28 27 26 24 24 23 21 18 15 15 17 16 15 13 11 10 11 10 8 8 8 8 7 4 3 7 7 8 9 10 11 11 8 8 9 10 11 13 14 12 11 11 10 10 12 13 10 12 13 8 5 3 4 10 15 14 15 15 14 16 18 18 14 11 9 7 8 8
30 33 36 38 37 36 36 37 38 37 35 33 32 29 28 30 31 30 29 27 25 24 23 21 18 17 17 16 15 14 13 11 10 11 11 10 10 9 8 9 9 6 9 9 9 9 10 10 10 9 8 9 10 10 11 12 10 11 13 13 14 14 12 10 11 11 8 7 5 4 10 13 11 12 16 16 17 17 16 12 10 8 6 8 9
28 31 34 36 35 34 35 38 37 36 34 33 31 31 31 31 31 31 30 29 27 25 24 22 19 18 18 16 14 15 14 12 12 11 10 10 10 9 8 9 12 11 10 11 10 10 11 11 10 10 10 9 10 10 11 11 10 11 15 16 17 17 14 13 16 13 10 9 7 6 9 13 12 11 14 16 15 14 12 9 6 6 6 8 10
Wind_Direction
148 148 147 149 147 147 149 151 153 155 153 149 146 141 138 137 138 134 130 126 120 114 109 105 104 102 102 105 108 111 112 110 105 100 95 92 92 92 92 91 90 91 93 92 88 84 84 85 82 81 79 79 80 81 80 81 83 83 85 83 80 82 86 88 88 90 89 87 83 81 75 70 73 76 74 73 76 77 79 75 64 67 75 78 78
151 147 148 150 147 148 150 153 155 157 154 150 146 142 138 138 138 134 130 125 120 115 108 105 105 105 106 110 112 114 115 113 106 101 96 92 91 94 95 94 94 93 94 92 85 84 87 85 81 82 80 79 81 84 84 84 83 82 83 83 83 84 88 92 91 91 89 86 85 83 77 73 75 76 75 74 76 79 82 78 68 67 72 77 79
148 145 148 149 147 148 151 154 156 157 155 151 146 142 138 138 138 134 130 126 121 113 107 104 106 108 111 114 116 116 116 114 109 104 100 97 97 99 99 97 94 91 92 89 83 85 86 84 82 83 81 78 80 84 88 88 86 87 88 89 90 91 93 95 97 95 86 82 85 83 79 78 77 74 74 76 78 80 82 79 75 71 69 71 74
147 146 148 149 148 148 151 155 156 156 154 151 146 142 139 139 137 134 131 126 120 112 108 105 107 110 114 117 118 117 116 115 111 107 105 104 104 104 103 99 96 94 92 87 84 86 85 84 84 86 86 82 82 85 92 95 94 97 96 94 93 94 96 100 104 100 85 76 79 80 79 79 77 75 74 76 79 80 80 80 80 76 72 69 70
146 147 149 149 148 148 151 154 156 155 153 150 146 143 140 140 137 134 131 127 119 114 111 107 109 112 114 116 119 119 119 117 113 109 108 108 107 104 103 101 99 99 96 91 88 89 88 85 84 87 90 89 86 89 98 101 103 103 98 96 96 95 98 108 113 111 92 68 73 79 77 77 77 77 77 77 78 80 81 82 82 78 76 73 72
146 147 148 148 147 147 150 152 155 154 152 150 146 144 142 140 137 134 132 128 120 117 115 112 112 112 112 113 117 120 122 122 117 113 109 106 103 102 102 101 99 100 100 98 95 93 92 88 86 83 89 94 90 97 105 106 109 103 99 101 99 98 97 106 114 119 103 65 73 81 80 78 77 79 79 78 77 80 82 84 85 82 78 75 75
144 146 147 146 145 146 150 151 154 153 151 150 147 145 143 141 137 133 132 129 123 120 118 116 114 111 110 109 114 117 121 124 121 117 112 106 104 103 100 99 98 100 101 101 99 98 95 91 87 78 86 98 98 105 107 109 112 106 105 105 101 99 94 95 97 97 80 72 86 87 82 82 81 82 81 79 80 83 82 83 86 85 80 76 78
141 144 146 144 144 147 150 150 152 152 151 149 147 147 146 143 138 134 133 132 126 122 121 120 115 111 109 107 110 115 120 122 123 120 116 114 114 110 104 102 102 104 104 105 105 101 98 93 87 79 85 96 98 102 106 111 114 112 110 105 100 95 87 81 67 60 79 100 102 93 83 85 86 84 83 80 83 87 83 83 84 83 82 81 82
138 143 147 144 145 147 149 150 151 151 151 149 149 149 148 144 139 135 135 133 127 125 125 121 117 114 111 110 110 114 118 120 124 123 119 119 120 117 114 113 109 111 110 110 108 102 100 93 88 82 82 85 88 96 106 116 117 114 109 104 95 84 75 65 61 80 104 112 105 92 83 87 88 83 81 80 85 89 87 86 85 83 84 86 85
136 142 146 144 145 147 149 150 151 151 151 151 151 152 149 145 140 138 137 134 131 129 126 122 119 117 116 115 114 116 117 120 124 123 120 119 122 125 125 123 117 118 112 106 105 103 102 97 95 86 76 72 77 95 110 119 117 113 105 100 90 79 68 63 79 101 111 112 101 87 83 85 87 83 79 82 89 89 87 86 85 85 85 86 85
137 144 145 143 145 148 149 150 151 151 151 152 153 153 150 145 141 139 138 136 135 132 127 124 120 118 118 116 118 121 121 121 123 120 116 110 114 121 129 133 128 127 119 111 108 107 110 108 100 85 75 71 81 97 111 119 117 113 103 96 85 77 68 70 93 110 112 107 94 86 85 82 82 84 78 83 92 90 88 87 86 87 87 86 85
141 145 144 143 147 148 148 149 150 149 151 152 153 152 149 145 143 141 140 138 136 133 129 125 121 119 119 117 120 125 128 126 122 118 112 107 108 111 120 130 131 131 130 130 123 115 118 117 98 83 85 83 91 101 114 122 121 116 104 94 80 76 70 70 97 115 113 104 93 89 89 85 84 85 77 83 92 90 89 88 88 88 87 88 87
143 145 144 145 147 148 148 148 148 148 150 151 153 151 148 146 144 143 141 139 137 134 131 125 122 122 121 121 122 126 131 130 127 124 118 113 111 111 115 120 128 132 138 142 136 126 117 118 106 91 97 98 100 104 119 126 126 119 104 92 78 79 67 66 105 124 114 102 94 90 90 91 90 88 80 83 91 88 88 88 89 90 89 89 87
145 145 145 146 146 149 148 148 148 148 150 152 153 151 149 148 146 144 141 141 138 136 132 127 125 124 124 124 125 126 127 129 131 132 128 123 117 113 115 121 130 134 137 139 137 134 126 127 124 107 100 105 106 101 115 123 126 120 104 90 80 80 62 71 115 125 110 100 93 89 92 97 96 92 83 84 89 87 89 88 87 90 91 90 85
146 145 144 145 145 148 149 149 149 150 152 152 153 152 151 149 147 145 143 142 139 136 133 130 128 126 126 125 125 123 123 126 130 134 132 130 125 119 121 127 133 131 131 132 130 130 132 136 133 118 98 101 104 101 114 116 125 121 103 89 83 78 59 81 120 120 107 99 93 90 94 102 100 95 88 89 90 85 89 90 89 90 90 88 85
145 144 145 146 147 148 149 151 152 152 153 153 154 153 151 149 148 146 143 141 137 135 132 131 130 129 129 126 123 122 123 126 130 132 132 133 128 123 126 130 131 128 126 125 122 118 125 132 123 107 93 103 97 105 126 120 125 120 104 94 90 78 63 93 124 117 107 100 95 93 96 105 103 97 94 96 91 82 90 93 92 92 89 89 87
144 147 147 147 149 150 151 152 154 154 154 155 154 153 151 150 148 145 143 141 137 134 131 131 132 133 133 127 122 123 124 125 128 128 128 130 127 126 130 131 129 125 121 117 114 106 104 110 105 93 88 112 100 107 132 131 129 120 113 100 92 77 68 102 123 114 105 98 95 95 100 107 104 102 100 99 90 83 90 92 92 93 91 92 90
145 149 148 148 151 151 153 154 156 155 155 154 153 153 152 151 148 145 143 141 135 130 129 131 136 139 135 128 124 125 128 128 127 124 126 128 128 129 128 126 123 117 114 109 108 103 95 80 79 84 81 100 104 101 115 134 130 123 120 100 90 77 77 113 124 112 106 96 95 97 103 106 105 105 104 103 95 88 88 88 92 95 93 91 90
145 147 147 149 152 154 156 156 158 156 155 154 151 152 152 151 148 145 143 139 134 129 131 136 140 139 135 130 127 129 131 129 125 123 126 128 126 126 123 117 113 109 106 101 98 94 90 67 39 74 90 100 111 100 98 132 133 131 121 96 86 70 80 126 126 113 107 96 94 97 103 108 107 107 107 106 102 95 84 81 86 89 93 93 92
145 146 147 151 155 157 158 157 157 156 155 154 152 151 152 151 147 146 143 138 135 135 139 142 141 139 137 134 130 131 129 126 125 123 122 121 119 116 115 111 106 101 96 92 86 83 82 75 56 62 125 124 123 105 100 129 137 135 122 97 77 62 92 134 127 114 103 96 96 98 106 110 110 110 109 108 105 98 85 82 79 77 87 95 96
146 147 149 153 159 160 157 157 156 155 156 155 152 151 151 151 147 144 141 138 139 144 147 144 143 141 141 139 135 133 129 127 123 117 116 115 113 111 110 106 100 91 83 82 77 74 72 71 64 56 132 153 146 121 113 129 137 136 125 99 74 74 115 133 124 115 103 102 102 103 111 114 114 113 111 111 109 102 97 94 81 74 81 89 94
149 150 153 160 163 160 157 157 155 155 157 156 154 152 153 151 145 142 139 141 147 153 151 146 147 149 149 144 138 136 132 128 119 114 115 115 111 108 108 101 94 85 77 77 76 70 63 64 65 58 106 147 143 124 117 123 134 141 128 101 71 83 127 130 117 113 106 107 106 111 116 116 118 116 114 113 112 110 109 103 79 72 77 82 90
156 154 158 167 166 160 159 157 154 158 159 157 155 154 155 150 144 142 140 147 157 159 151 150 155 155 152 145 138 138 132 120 113 117 119 117 113 113 112 105 97 85 77 73 75 72 61 61 64 65 104 134 136 126 117 116 129 143 131 103 55 84 129 122 115 114 109 111 111 120 121 120 122 119 118 117 117 118 114 101 76 73 79 83 89
160 157 160 168 169 163 160 156 155 159 159 157 156 155 154 148 144 144 145 155 164 159 154 157 161 157 151 147 144 143 132 121 122 127 126 125 124 123 119 111 101 85 82 73 79 78 67 64 58 66 102 126 133 121 96 87 158 172 151 123 72 105 135 122 118 118 115 117 121 128 129 129 127 122 122 123 123 121 113 98 78 84 91 91 93
157 157 160 164 169 168 162 157 158 159 159 159 157 155 152 146 147 148 151 164 167 159 158 163 163 157 155 153 150 147 140 135 140 142 142 145 141 135 130 123 110 96 87 59 61 64 70 74 63 73 96 114 117 38 347 299 246 196 170 148 114 121 137 128 120 117 116 120 127 131 131 133 129 124 126 127 125 120 111 96 92 102 102 99 98
152 157 159 162 170 170 164 160 161 160 160 159 155 152 148 146 151 151 158 170 168 159 162 168 164 159 161 161 152 150 151 151 153 156 157 160 154 141 139 139 127 123 117 64 33 31 66 82 76 97 94 114 329 338 321 267 221 189 176 164 140 127 130 129 122 117 121 126 131 129 127 128 125 125 128 129 124 113 101 97 106 108 101 102 102
154 160 159 162 170 169 165 163 162 161 159 157 154 150 147 151 156 155 164 175 169 161 164 168 169 166 167 168 162 161 164 164 164 166 166 162 158 147 155 166 152 162 187 168 232 346 33 27 328 223 320 298 328 354 337 208 191 168 173 167 141 127 131 131 121 121 128 131 134 132 129 126 122 125 131 130 116 103 101 107 117 108 96 98 102
159 164 160 163 169 168 166 165 164 162 157 156 157 155 154 157 160 161 169 176 169 165 165 164 171 175 174 175 175 175 174 173 172 171 167 160 164 170 184 191 172 190 228 246 256 300 351 350 320 292 297 308 5 29 129 176 174 148 160 176 149 136 138 131 118 120 129 133 137 136 134 129 123 126 129 127 118 113 113 116 123 110 96 93 98
164 168 164 164 168 167 167 168 166 162 158 161 162 159 159 161 164 166 171 175 171 172 175 169 169 173 171 176 178 181 182 177 173 170 165 165 177 188 189 190 190 209 228 245 267 284 300 337 337 319 300 15 33 54 134 150 148 139 145 160 165 155 145 133 121 118 126 134 138 138 138 135 130 129 128 129 124 123 118 118 127 118 99 93 95
169 171 165 166 168 164 166 171 167 162 163 165 164 164 163 164 168 169 170 177 178 179 181 173 165 164 166 172 174 180 184 179 179 178 176 180 190 197 180 158 161 212 224 212 223 300 292 352 8 60 65 41 40 67 126 133 135 146 148 153 169 158 146 141 127 117 122 129 136 140 144 144 141 136 132 130 127 126 121 119 126 122 111 105 97
170 170 167 167 166 161 165 172 169 165 166 164 165 170 168 165 169 169 171 179 182 181 180 173 167 166 171 174 169 173 181 189 205 202 194 198 204 208 183 146 140 207 265 232 213 74 89 45 62 84 64 55 61 82 125 128 133 149 144 144 164 154 147 154 138 118 117 120 126 136 144 146 143 142 140 138 134 130 126 121 122 121 118 118 109
168 168 165 160 156 157 162 167 170 171 171 167 168 172 169 166 170 172 172 176 178 180 182 180 176 175 179 176 169 172 177 194 213 214 214 209 206 210 189 148 139 187 258 236 217 114 103 84 93 83 67 109 106 105 142 130 125 129 118 130 157 158 156 164 149 125 118 119 123 127 131 133 133 138 143 146 142 133 131 129 124 120 118 122 121
161 150 140 140 146 152 157 162 169 173 170 169 172 170 168 169 172 173 169 169 174 180 184 185 184 178 180 176 175 179 174 190 206 209 220 217 209 210 194 157 145 169 208 207 186 127 115 106 114 100 97 138 125 112 133 130 120 117 119 140 153 150 159 165 152 133 125 127 127 123 122 128 135 139 142 147 147 142 141 135 128 124 120 123 119
131 117 117 131 148 151 158 166 170 171 168 168 170 167 167 168 171 170 167 167 171 179 184 186 182 176 183 186 185 186 180 194 208 211 219 225 221 213 185 158 153 179 213 215 191 137 129 125 127 132 125 128 126 120 124 124 119 110 118 140 152 151 156 158 149 139 140 142 135 129 128 132 135 141 149 150 151 151 148 141 135 132 130 130 117
107 117 130 141 152 154 162 170 168 168 168 165 164 164 167 167 168 168 168 170 172 178 183 179 176 177 191 199 191 193 195 200 212 217 222 228 229 221 188 161 159 183 205 213 186 145 138 138 129 137 142 120 118 127 119 116 120 116 117 129 145 152 146 140 141 143 153 156 146 141 139 137 133 136 148 150 152 156 153 145 139 135 133 135 134
114 133 145 147 152 159 166 168 164 164 166 166 164 165 168 169 170 171 173 175 174 178 183 179 179 181 190 198 193 195 200 203 208 214 230 238 234 224 199 174 171 178 172 176 181 155 142 144 135 136 150 128 115 122 119 116 118 117 117 120 129 135 124 115 123 136 156 160 158 155 147 143 143 146 149 149 150 150 151 150 147 146 143 143 149
132 145 147 146 147 157 162 156 153 158 162 167 169 169 170 173 176 174 172 172 171 180 190 187 187 187 185 192 195 194 197 202 204 208 225 237 234 221 203 191 186 178 167 169 181 165 148 147 143 142 151 141 129 131 129 124 118 113 115 118 119 114 103 100 105 120 147 154 159 169 168 164 170 175 164 158 156 150 153 157 155 156 156 156 159
141 143 140 140 137 144 149 141 144 152 160 167 172 173 171 172 170 164 163 164 168 181 189 178 173 175 178 186 189 188 190 196 204 208 210 215 221 217 205 197 192 184 172 170 180 166 152 156 156 147 148 154 148 144 140 129 121 118 116 115 116 109 96 98 104 111 128 128 146 168 175 175 177 181 176 173 170 163 162 163 167 172 174 176 176
141 131 126 127 126 133 141 143 149 156 163 169 173 172 169 164 158 153 160 164 162 166 164 158 154 143 149 166 168 174 186 188 195 205 211 215 217 212 207 203 195 189 176 168 176 166 154 161 169 158 149 155 148 138 139 132 124 122 119 114 113 109 98 102 107 117 127 106 114 148 164 170 171 175 175 179 179 176 176 173 175 179 181 186 192
133 127 124 126 129 136 142 149 158 164 166 170 170 168 163 159 158 155 158 162 158 153 150 152 151 134 130 146 156 163 178 180 187 201 215 222 219 210 208 210 197 189 179 170 171 167 159 161 167 163 156 155 141 129 138 139 128 116 110 114 114 107 97 105 108 115 117 94 91 116 142 147 145 158 167 174 178 177 179 177 173 173 173 174 183
128 135 132 131 136 141 145 150 158 163 165 165 164 163 162 163 165 161 157 159 159 151 143 142 141 135 130 138 154 171 159 166 185 195 206 214 218 211 203 204 195 186 178 174 177 171 164 164 162 154 154 158 145 134 142 140 128 117 107 108 113 111 105 112 120 121 113 105 102 109 118 119 118 131 141 149 156 159 168 171 170 169 155 128 121
137 142 137 136 142 146 146 146 149 157 161 161 160 161 165 166 164 160 155 152 147 142 137 136 134 129 130 127 127 152 153 158 174 182 193 202 211 207 194 194 193 190 183 179 188 178 165 170 168 153 150 159 151 143 147 143 135 132 123 105 96 101 105 117 132 140 135 135 126 115 114 114 112 114 116 123 128 136 150 156 161 158 130 109 103
148 146 137 139 147 148 146 144 145 151 155 159 162 163 166 163 153 150 150 143 135 135 130 126 124 117 122 120 104 121 144 157 166 171 181 189 204 203 191 192 191 187 183 180 187 180 170 175 177 165 158 157 153 154 157 151 143 137 126 112 108 95 86 105 124 133 144 154 147 135 125 117 112 109 111 113 113 125 141 144 151 143 121 110 105
150 146 140 145 151 151 149 147 147 150 153 156 160 158 156 146 133 134 140 136 130 134 127 118 117 113 115 117 103 103 125 152 164 168 175 177 190 194 182 185 186 177 176 180 185 180 176 179 180 177 169 160 154 165 173 163 152 147 127 106 133 108 90 127 118 109 127 153 153 157 149 132 124 120 116 111 105 114 132 139 137 126 118 118 106
150 151 151 153 155 155 152 148 147 150 151 152 151 147 142 135 128 127 129 129 129 137 137 131 129 124 125 128 116 106 113 130 141 148 162 166 170 180 178 179 181 176 177 182 184 182 184 184 181 181 180 172 164 167 177 174 165 161 149 132 121 95 177 180 128 94 103 123 112 130 146 138 129 128 121 112 105 100 108 126 128 121 119 108 73
159 159 157 156 156 156 152 148 149 152 153 152 150 145 141 137 135 131 130 133 137 144 145 143 141 132 130 134 126 115 114 112 112 117 127 139 148 159 171 180 183 181 185 188 184 185 191 190 188 191 188 182 173 166 170 178 177 173 156 138 118 113 158 158 126 89 86 89 88 105 130 134 129 127 119 111 106 105 106 113 119 116 107 87 67
163 161 160 158 156 155 154 152 153 155 157 158 154 147 141 141 143 141 139 142 146 147 145 142 141 135 133 135 132 129 124 114 111 115 114 115 122 126 131 144 163 176 189 193 187 187 191 190 190 195 189 184 182 173 168 169 174 180 169 134 101 119 151 155 135 131 95 78 82 93 109 121 123 121 118 115 111 109 110 110 114 116 100 76 64
161 158 160 159 158 158 156 154 153 154 158 160 157 153 148 147 148 148 147 145 141 140 139 137 136 138 141 140 139 137 132 128 125 120 115 112 112 112 110 99 120 185 189 185 185 185 188 190 189 193 189 184 186 177 169 167 167 174 166 137 111 131 155 158 133 130 120 84 86 88 98 109 113 111 112 121 119 114 116 117 119 120 96 70 60
160 158 158 158 159 159 157 155 153 155 158 159 160 163 163 157 152 150 148 143 138 137 138 138 135 137 140 138 136 133 130 133 134 125 122 122 118 117 116 98 84 192 195 179 178 179 183 190 188 186 183 172 171 168 164 165 168 169 161 137 120 133 145 135 121 124 124 124 120 98 107 108 109 104 102 121 130 123 123 124 122 118 90 69 68
160 158 158 159 159 160 160 158 157 158 161 164 167 171 171 163 155 153 148 144 142 141 141 142 138 135 134 132 131 132 129 130 133 132 127 124 123 125 127 109 97 132 178 177 175 173 178 186 181 175 174 160 156 161 159 159 164 166 162 147 136 141 138 129 138 143 135 125 120 132 126 116 120 115 103 115 132 131 127 125 123 117 83 63 67
160 158 159 161 161 162 162 161 162 163 163 167 170 169 165 159 155 155 152 150 149 148 147 149 147 143 139 136 138 141 139 128 122 126 131 129 121 120 126 120 108 114 139 158 164 164 169 177 177 174 175 165 157 161 159 160 164 160 160 159 159 161 156 158 172 164 140 134 127 130 138 132 138 140 119 115 125 130 127 122 118 106 75 63 62